User: anonymous
Location: Fremont
(37.5480°N, 121.9880°W)
Time: 21:14:01
(UTC-07:00)
Language:

Cosmos 1766 - Orbit

View from above orbital plane
View from above orbital plane
View from above satellite
View from above satellite

Ground track
Ground track

The orbit data is extracted from the following two-line orbital elements,

1 16881U 86055A   14208.79050543  .00000983  00000-0  65870-4 0  9198
2 16881 082.5123 333.5826 0014164 084.3755 275.9087 15.05707189522319
Epoch (UTC): 27 July 2014 18:58:19
Eccentricity: 0.0014164
inclination: 82.5123°
perigee height: 539 km
apogee height: 559 km
right ascension of ascending node: 333.5826°
argument of perigee: 84.3755°
revolutions per day: 15.05707189
mean anomaly at epoch: 275.9087°
orbit number at epoch: 52231

The dashed part of the orbit path shows where the satellite is in the earth's shadow,  

DLR